This is the latest recevied weather packets stored in our database for station/object KE0LFX. If no packets are shown the sender has not sent any weather packets the latest 10 day(s).
| Time | Temp. | Humidity | Pressure | Rain* | Wind** | Luminosity | Snow |
|---|---|---|---|---|---|---|---|
| 1777745361 | 13.89° C | 37% | 1023.9 hPa | 0 mm | - | 699 W/m² | - |
| 1777745058 | 13.33° C | 35% | 1023.8 hPa | 0 mm | - | 686 W/m² | - |
| 1777744754 | 13.33° C | 36% | 1023.9 hPa | 0 mm | - | 309 W/m² | - |
| 1777744449 | 13.89° C | 37% | 1023.9 hPa | 0 mm | - | 85 W/m² | - |
| 1777744145 | 13.33° C | 40% | 1023.9 hPa | 0 mm | - | 85 W/m² | - |
| 1777743842 | 13.33° C | 37% | 1024.1 hPa | 0 mm | - | 88 W/m² | - |
| 1777743539 | 13.33° C | 37% | 1024.1 hPa | 0 mm | - | 110 W/m² | - |
| 1777743236 | 12.78° C | 36% | 1024.2 hPa | 0 mm | - | 148 W/m² | - |
| 1777742935 | 12.78° C | 40% | 1024.3 hPa | 0 mm | - | 317 W/m² | - |
| 1777742631 | 12.78° C | 38% | 1024.3 hPa | 0 mm | - | 111 W/m² | - |
| 1777742327 | 12.22° C | 37% | 1024.2 hPa | 0 mm | - | 172 W/m² | - |
| 1777742023 | 12.78° C | 39% | 1024.3 hPa | 0 mm | - | 175 W/m² | - |
| 1777741721 | 12.22° C | 39% | 1024.5 hPa | 0 mm | - | 104 W/m² | - |
| 1777741417 | 12.22° C | 38% | 1024.5 hPa | 0 mm | - | 90 W/m² | - |
| 1777741113 | 12.22° C | 36% | 1024.4 hPa | 0 mm | - | 110 W/m² | - |
| 1777740810 | 12.78° C | 37% | 1024.4 hPa | 0 mm | - | 299 W/m² | - |
| 1777740507 | 11.67° C | 37% | 1024.4 hPa | 0 mm | - | 161 W/m² | - |
| 1777740204 | 11.67° C | 38% | 1024.6 hPa | 0 mm | - | 131 W/m² | - |
| 1777739900 | 12.22° C | 40% | 1024.7 hPa | 0 mm | - | 111 W/m² | - |
| 1777739597 | 12.22° C | 42% | 1024.4 hPa | 0 mm | - | 113 W/m² | - |
| 1777739294 | 12.22° C | 41% | 1024.6 hPa | 0 mm | - | 116 W/m² | - |
| 1777738991 | 12.22° C | 42% | 1024.6 hPa | 0 mm | - | 121 W/m² | - |
| 1777738688 | 12.78° C | 40% | 1024.8 hPa | 0 mm | - | 109 W/m² | - |
| 1777738384 | 12.22° C | 42% | 1024.7 hPa | 0 mm | - | 85 W/m² | - |
| 1777738082 | 11.67° C | 43% | 1024.7 hPa | 0 mm | - | 78 W/m² | - |
* Rain latest hour (hover to see other rain measurements)
** Current wind speed in m/s (hover to see current wind gust speed)